Simultaneous Nadir Overpasses (SNOs) Predictions

Prediction of SNOs between LANDSAT-8 and NPP Satellite Orbit:

Table of predicted SNOs for the next 14.0 days since TLE Epoch: 9/4/2015
Index Date (LANDSAT-8) Time (LANDSAT-8) Lat,Lon (LANDSAT-8) SZA (LANDSAT-8 ) Date (NPP) Time (NPP) Lat,Lon (NPP) SZA (NPP ) Distance(km) Time Diff (sec)
1 09/06/2015 04:29:50 -70.43, -70.56 116.23 09/06/2015 04:29:03 -70.43, -70.48 116.22 3.01 47
2 09/06/2015 05:19:17 70.33, 96.93 63.69 09/06/2015 05:19:48 70.36, 96.94 63.72 3.64 31
3 09/08/2015 19:56:35 71.33,-120.92 65.65 09/08/2015 19:55:29 71.40,-123.64 65.77 97.03 66
4 09/08/2015 20:46:20 -70.40, 45.28 115.25 09/08/2015 20:45:54 -70.43, 45.29 115.22 3.07 26
5 09/08/2015 21:35:47 70.30,-147.23 64.66 09/08/2015 21:36:38 70.31,-147.21 64.67 1.33 51
6 09/11/2015 12:13:19 70.59, -6.20 65.93 09/11/2015 12:12:06 70.63, -6.56 65.98 13.87 73
7 09/11/2015 13:02:51 -70.37, 161.11 114.27 09/11/2015 13:02:45 -70.39, 161.14 114.26 1.66 6
8 09/11/2015 13:52:18 70.27, -31.40 65.64 09/11/2015 13:53:29 70.27, -31.37 65.64 1.20 71
9 09/14/2015 04:29:52 70.44, 109.45 66.80 09/14/2015 04:28:54 70.43, 109.53 66.79 3.14 58
10 09/14/2015 05:19:22 -70.34, -83.06 113.29 09/14/2015 05:19:36 -70.35, -83.02 113.28 1.94 14
11 09/14/2015 06:09:01 69.56, 83.50 65.97 09/14/2015 06:10:08 69.59, 85.42 65.97 74.89 67
12 09/16/2015 20:46:22 70.45,-134.66 67.83 09/16/2015 20:45:46 70.45,-134.72 67.84 2.27 36
13 09/16/2015 21:35:53 -70.29, 32.75
